Home   Weather   Babylon   Past weeks

Flag for USA Past Weather in Babylon, New York, USA — Yesterday and Last 2 Weeks

Now
45 °F

Mostly cloudy.


Feels Like: 42 °F
Forecast: 39 / 47 °F
Wind: 6 mph from Northwest

Location: Republic Airport

Current Time: Dec 7, 2016 at 3:30:07 pm

Latest Report: Dec 7, 2016 at 2:53 pm


Visibility: 10 mi

Pressure: 29.98 "Hg

Humidity: 82%

Dew Point: 40 °F

Location of BabylonLocation

Past Weather in Babylon — Graph

°F

Babylon Temperature Yesterday

Maximum temperature yesterday: 46 °F (at 12:53 pm)
Minimum temperature yesterday: 34 °F (at 6:53 am)
Average temperature yesterday: 40 °F

High & Low Weather Summary for the Past Weeks

 TemperatureHumidityPressure
High58 °F (Dec 1, 12:53 am)100% (Nov 30, 12:53 pm)30.32 "Hg (Nov 30, 12:53 pm)
Low32 °F (Dec 4, 6:53 am)39% (Nov 22, 1:53 pm)29.46 "Hg (Dec 1, 2:53 am)
Average45 °F69%30.06 "Hg
* Reported Nov 22 1:53 pm — Dec 7 1:53 pm, Babylon, Weather by CustomWeather, © 2016

Note: Actual official high and low records may vary slightly from our data, if they occured in-between our weather recording intervals... More about our weather records

Advertising

Babylon Weather History for the Previous 24 Hours

Scroll right to see more
 ConditionsComfort  
Time TempWeatherWind HumidityBarometerVisibility
1:53 pm
Wed, Dec 7
45 °FOvercast.5 mph86%29.96 "Hg10 mi
12:53 pm45 °FOvercast.5 mph82%29.95 "Hg10 mi
11:53 am44 °FLow clouds.No wind89%29.96 "Hg10 mi
10:53 am44 °FLow clouds.7 mph89%29.98 "Hg10 mi
9:53 am43 °FLow clouds.5 mph89%30.00 "Hg10 mi
8:53 am42 °FLow clouds.6 mph92%29.99 "Hg10 mi
7:53 am41 °FLow clouds.7 mph93%29.94 "Hg10 mi
6:53 am41 °FMostly cloudy.7 mph93%29.93 "Hg10 mi
5:53 am41 °FMostly cloudy.8 mph93%29.92 "Hg9 mi
4:53 am41 °FOvercast.10 mph96%29.89 "Hg10 mi
3:53 am42 °FLight rain. Fog.9 mph92%29.90 "Hg6 mi
2:53 am41 °FLight rain. Fog.9 mph93%29.85 "Hg4 mi
1:53 am41 °FMostly cloudy.10 mph89%29.83 "Hg10 mi
12:53 am41 °FLight rain. Mostly cloudy.12 mph89%29.84 "Hg8 mi
11:53 pm
Tue, Dec 6
41 °FMostly cloudy.12 mph89%29.86 "Hg10 mi
10:53 pm41 °FLight rain. Overcast.12 mph89%29.87 "Hg10 mi
9:53 pm41 °FRain. Mostly cloudy.7 mph89%29.93 "Hg7 mi
8:53 pm40 °FLight rain. Overcast.12 mph89%29.92 "Hg8 mi
7:53 pm41 °FLight rain. Overcast.8 mph80%29.94 "Hg9 mi
6:53 pm43 °FLight rain. Mostly cloudy.6 mph68%29.98 "Hg10 mi
5:53 pm44 °FOvercast.6 mph63%29.98 "Hg10 mi
4:53 pm44 °FOvercast.7 mph60%29.97 "Hg10 mi
3:53 pm44 °FPartly sunny.10 mph60%29.97 "Hg10 mi
Weather by CustomWeather, © 2016

See weather overviewHow to use our weather pages